[[{"header":{"parameterUnit":"m.s-1","parameterCategory":1,"la1":30.2992,"la2":30.254,"lo1":-89.0895,"lo2":-89.0443,"dy":0.0025,"dx":0.0025,"nx":19,"ny":19,"refTime":"2026-05-05T09:00:00:Z","depth":0,"parameterNumber":2,"parameterNumberName":"U-component_of_WINDS"},"data":[0,0,0,2.8507,2.8507,2.8507,2.8507,2.8523,2.8523,0,0,0,0,0,0,0,0,0,0,0,2.8519,2.852,2.8507,2.8507,2.8507,2.8507,2.8523,2.8523,0,0,0,0,0,0,0,0,0,0,0,2.8519,2.8519,2.852,2.8507,2.8507,2.8507,2.8523,2.8517,0,0,0,0,0,0,0,0,0,0,2.8514,2.8538,2.8519,2.852,2.8507,2.8507,2.8507,2.8516,2.8517,2.8531,0,2.8548,0,2.8536,2.8526,2.8526,0,0,0,2.8498,2.8537,2.8526,2.852,2.8507,2.8507,2.8504,2.8517,2.8518,2.8532,2.8548,2.8548,2.8536,2.8526,2.8526,2.8639,2.864,0,0,2.8498,2.8525,2.8525,2.8527,2.8531,2.8504,2.8504,2.8517,2.8535,2.8548,2.8548,2.8537,2.8526,2.8526,2.8638,2.8639,0,0,0,2.8504,2.8526,2.8514,2.8527,2.8526,2.8505,2.8505,2.8535,2.8529,2.8548,2.8537,2.8526,2.8527,2.8637,2.8638,2.8711,0,0,0,2.8504,2.8529,2.8514,2.8531,2.8526,2.8531,2.8523,2.8528,2.8528,2.8537,2.8526,2.8527,2.8636,2.8637,2.8707,2.8741,0,0,0,2.8515,2.8531,2.8535,2.8533,2.8534,2.853,2.8524,2.8527,2.8522,2.8526,2.8527,2.8635,2.8637,2.8703,2.8735,2.8777,0,0,0,2.8535,2.8601,2.8537,2.8606,2.8534,2.8576,2.8524,2.8554,2.8566,2.8527,2.8636,2.8638,2.8702,2.8731,2.8773,2.8816,2.8837,0,0,2.8634,2.8614,2.8653,2.8595,2.8656,2.8574,2.8645,2.863,2.8605,2.8628,2.8631,2.8709,2.8734,2.8776,2.895,2.8967,0,0,0,2.8693,2.8721,2.8731,2.8744,2.8735,2.8728,2.87,2.8693,2.8712,2.8623,2.8735,2.875,2.8773,2.8792,2.8807,2.8824,2.8649,2.8648,2.8648,2.8873,2.8837,2.8897,2.8861,2.8874,2.8843,2.8849,2.8835,2.8796,2.8823,2.8829,2.8939,2.8963,2.8973,2.8991,2.8851,2.8851,2.8851,2.8851,2.9013,2.9046,2.899,2.9029,2.899,2.9021,2.8993,2.8963,2.8985,2.8932,2.8951,2.8894,2.8993,2.9007,2.8856,2.8856,2.8855,2.8854,2.8854,2.9125,2.9134,2.9126,2.9139,2.9153,2.9113,2.9136,2.91,2.9066,2.9084,2.9085,2.9084,2.9076,2.9088,2.9088,2.9089,2.9089,2.9089,2.9089,2.9244,2.9232,2.9256,2.925,2.9252,2.925,2.9218,2.9218,2.9209,2.918,2.918,2.9136,2.9011,2.8979,2.9095,2.9094,2.9093,2.9093,2.9092,2.9396,2.9355,2.9394,2.9396,2.9383,2.9397,2.9351,2.9354,2.9349,2.9361,2.9313,2.9227,2.9204,2.9192,2.9165,2.9322,2.9322,2.9322,2.9322,2.9489,2.9474,2.9503,2.9508,2.9509,2.947,2.951,2.9485,2.9452,2.9446,2.9418,2.938,2.9369,2.9352,2.9337,2.9311,2.9502,2.9502,2.9502,2.9579,2.9562,2.9605,2.9573,2.956,2.9549,2.9585,2.9591,2.9545,2.9509,2.9439,2.9432,2.937,2.9352,2.9313,2.929,2.9242,0,0]},{"header":{"parameterUnit":"m.s-1","parameterCategory":1,"la1":30.2992,"la2":30.254,"lo1":-89.0895,"lo2":-89.0443,"dy":0.0025,"dx":0.0025,"nx":19,"ny":19,"refTime":"2026-05-05T09:00:00:Z","depth":0,"parameterNumber":3,"parameterNumberName":"V-component_of_WINDS"},"data":[0,0,0,7.4934,7.4939,7.5172,7.5172,7.547,7.5473,0,0,0,0,0,0,0,0,0,0,0,7.4869,7.4871,7.4933,7.4939,7.5171,7.5172,7.547,7.5473,0,0,0,0,0,0,0,0,0,0,0,7.4868,7.4871,7.4873,7.494,7.5171,7.5172,7.5469,7.5292,0,0,0,0,0,0,0,0,0,0,7.5066,7.5012,7.487,7.4874,7.4941,7.5171,7.5173,7.5284,7.5303,7.5366,0,7.5427,0,7.5455,7.5493,7.5494,0,0,0,7.4935,7.4996,7.5055,7.4874,7.4944,7.5171,7.5065,7.5295,7.5317,7.5392,7.5431,7.5442,7.546,7.5495,7.5497,7.5885,7.5887,0,0,7.4922,7.4912,7.504,7.5069,7.5038,7.5058,7.5073,7.5308,7.5348,7.5433,7.5449,7.5465,7.5497,7.55,7.5883,7.5885,0,0,0,7.4888,7.4903,7.4957,7.5057,7.5099,7.5065,7.5082,7.5338,7.5356,7.5452,7.5469,7.5499,7.5503,7.5881,7.5884,7.5977,0,0,0,7.488,7.4884,7.4951,7.4948,7.5095,7.5223,7.5106,7.534,7.5367,7.5467,7.5499,7.5506,7.5879,7.5882,7.597,7.6022,0,0,0,7.4852,7.488,7.4916,7.4947,7.5047,7.5219,7.5251,7.5346,7.5377,7.5495,7.5507,7.5877,7.5882,7.5963,7.6012,7.6123,0,0,0,7.4819,7.4993,7.4917,7.5118,7.5045,7.5276,7.5249,7.5421,7.5533,7.5501,7.5879,7.5883,7.5961,7.6005,7.6116,7.6216,7.6256,0,0,7.5033,7.5019,7.5137,7.5076,7.5319,7.5241,7.5496,7.5605,7.5622,7.5795,7.5805,7.5972,7.6011,7.6121,7.6486,7.6518,0,0,0,7.5202,7.5287,7.5354,7.5462,7.5552,7.5633,7.5705,7.5745,7.5893,7.5711,7.6042,7.6065,7.613,7.6178,7.6206,7.6262,7.5905,7.5905,7.5904,7.5491,7.5508,7.5705,7.575,7.5855,7.5928,7.6014,7.608,7.6062,7.614,7.6192,7.6412,7.6468,7.6489,7.6547,7.6245,7.6245,7.6246,7.6246,7.5808,7.5931,7.5907,7.6091,7.6105,7.6258,7.6334,7.6317,7.6459,7.6374,7.6432,7.6339,7.6524,7.6576,7.6253,7.6252,7.6251,7.625,7.625,7.6,7.6062,7.6111,7.627,7.6389,7.6426,7.6565,7.6572,7.6579,7.6636,7.6692,7.669,7.669,7.6662,7.6663,7.6664,7.6665,7.6665,7.6666,7.618,7.6232,7.6351,7.6462,7.6533,7.6627,7.6701,7.677,7.6847,7.6841,7.6841,7.6816,7.6539,7.647,7.6678,7.6675,7.6674,7.6673,7.6672,7.6496,7.6427,7.661,7.6681,7.6812,7.693,7.6938,7.7077,7.7134,7.7202,7.7165,7.6959,7.6943,7.6921,7.6864,7.7161,7.7161,7.7161,7.7161,7.6659,7.6653,7.6842,7.6956,7.7067,7.7093,7.7296,7.7356,7.7405,7.7441,7.7398,7.7322,7.73,7.7297,7.7267,7.7214,7.7594,7.7594,7.7594,7.6854,7.6859,7.7033,7.7085,7.7188,7.7275,7.7466,7.7594,7.7635,7.7612,7.7469,7.745,7.7328,7.7288,7.7262,7.7216,7.7118,0,0]}]]